| time (UTC) | temp C | wind direction | speed KPH | gust KPH | rain 1hr cm | rain 24hr cm | rain mn cm | humidity % | barometer mb |
| 20260505123115 | 11 | 105 | 0.0 | 0.0 | 0.00 | 0.00 | 0.00 | 82 | 1020.3 |
| 20260505121502 | 12 | 105 | 0.0 | 0.0 | 0.00 | 0.00 | 0.00 | 81 | 1020.5 |
| 20260505114501 | 12 | 105 | 0.0 | 3.2 | 0.00 | 0.00 | 0.00 | 78 | 1020.4 |
| 20260505113105 | 12 | 105 | 1.6 | 4.8 | 0.00 | 0.00 | 0.00 | 76 | 1020.5 |
| 20260505111502 | 12 | 112 | 1.6 | 8.0 | 0.00 | 0.00 | 0.00 | 76 | 1020.3 |
| 20260505101602 | 12 | 90 | 3.2 | 8.0 | 0.00 | 0.00 | 0.00 | 75 | 1020.0 |
| 20260505100002 | 12 | 90 | 3.2 | 8.0 | 0.00 | 0.00 | 0.00 | 75 | 1019.9 |
| 20260505094603 | 13 | 150 | 4.8 | 14.5 | 0.00 | 0.00 | 0.00 | 75 | 1019.8 |
| 20260505093002 | 13 | 119 | 8.0 | 14.5 | 0.00 | 0.00 | 0.00 | 75 | 1019.6 |
| 20260505091603 | 12 | 151 | 8.0 | 14.5 | 0.00 | 0.00 | 0.00 | 75 | 1019.4 |
| 20260505090001 | 13 | 162 | 8.0 | 14.5 | 0.00 | 0.00 | 0.00 | 74 | 1019.1 |
| 20260505084601 | 13 | 142 | 9.7 | 16.1 | 0.00 | 0.00 | 0.00 | 73 | 1018.9 |
| 20260505083005 | 13 | 156 | 11.3 | 19.3 | 0.00 | 0.00 | 0.00 | 74 | 1018.5 |
| 20260505081602 | 13 | 142 | 12.9 | 17.7 | 0.00 | 0.00 | 0.00 | 74 | 1018.3 |
| 20260505080103 | 13 | 125 | 6.4 | 16.1 | 0.00 | 0.00 | 0.00 | 74 | 1017.7 |
| 20260505074501 | 14 | 156 | 6.4 | 12.9 | 0.00 | 0.00 | 0.00 | 72 | 1017.4 |
| 20260505073107 | 15 | 123 | 3.2 | 8.0 | 0.00 | 0.00 | 0.00 | 69 | 1017.1 |
| 20260505071509 | 16 | 125 | 0.0 | 4.8 | 0.00 | 0.00 | 0.00 | 67 | 1016.9 |
| 20260505070002 | 16 | 123 | 4.8 | 6.4 | 0.00 | 0.00 | 0.00 | 66 | 1016.7 |
| 20260505064605 | 16 | 277 | 3.2 | 9.7 | 0.00 | 0.00 | 0.00 | 65 | 1016.4 |
| 20260505063004 | 16 | 140 | 6.4 | 14.5 | 0.00 | 0.00 | 0.00 | 63 | 1016.2 |
| 20260505061609 | 17 | 163 | 8.0 | 14.5 | 0.00 | 0.00 | 0.00 | 63 | 1016.0 |
| 20260505060002 | 17 | 131 | 6.4 | 14.5 | 0.00 | 0.00 | 0.00 | 61 | 1015.9 |
| 20260505054502 | 17 | 140 | 9.7 | 19.3 | 0.00 | 0.00 | 0.00 | 60 | 1015.7 |
| 20260505053113 | 18 | 156 | 9.7 | 16.1 | 0.00 | 0.00 | 0.00 | 59 | 1015.5 |
| 20260505051501 | 18 | 168 | 11.3 | 16.1 | 0.00 | 0.00 | 0.00 | 57 | 1015.4 |
| 20260505041615 | 19 | 101 | 6.4 | 14.5 | 0.00 | 0.00 | 0.00 | 51 | 1014.9 |
| 20260505040002 | 20 | 75 | 0.0 | 3.2 | 0.00 | 0.00 | 0.00 | 50 | 1014.7 |
| 20260505034604 | 20 | 5 | 0.0 | 3.2 | 0.00 | 0.00 | 0.00 | 48 | 1014.6 |
| 20260505031608 | 20 | 292 | 0.0 | 12.9 | 0.00 | 0.00 | 0.00 | 52 | 1014.5 |
| 20260505030002 | 19 | 159 | 8.0 | 11.3 | 0.00 | 0.00 | 0.00 | 50 | 1014.5 |
| 20260505024601 | 20 | 174 | 4.8 | 12.9 | 0.00 | 0.00 | 0.00 | 49 | 1014.5 |
| 20260505023001 | 20 | 209 | 9.7 | 22.5 | 0.00 | 0.00 | 0.00 | 49 | 1014.5 |
| 20260505021602 | 20 | 211 | 1.6 | 14.5 | 0.00 | 0.00 | 0.00 | 47 | 1014.8 |
| 20260505020002 | 20 | 290 | 6.4 | 16.1 | 0.00 | 0.00 | 0.00 | 47 | 1014.8 |
| 20260505014603 | 20 | 311 | 11.3 | 24.1 | 0.00 | 0.00 | 0.00 | 47 | 1015.0 |
| 20260505013003 | 20 | 308 | 6.4 | 11.3 | 0.00 | 0.00 | 0.00 | 47 | 1015.0 |
| 20260505011602 | 20 | 80 | 3.2 | 17.7 | 0.00 | 0.00 | 0.00 | 48 | 1015.1 |
| 20260505010002 | 20 | 4 | 9.7 | 14.5 | 0.00 | 0.00 | 0.00 | 53 | 1015.1 |
| 20260505004602 | 19 | 332 | 11.3 | 19.3 | 0.00 | 0.00 | 0.00 | 55 | 1015.0 |
| 20260505003001 | 18 | 331 | 17.7 | 25.7 | 0.00 | 0.00 | 0.00 | 56 | 1015.0 |
| 20260505001604 | 18 | 352 | 16.1 | 27.4 | 0.00 | 0.00 | 0.00 | 56 | 1015.0 |
| 20260505000002 | 17 | 330 | 16.1 | 27.4 | 0.00 | 0.00 | 0.00 | 59 | 1014.9 |
| 20260504234639 | 17 | 333 | 12.9 | 25.7 | 0.00 | 0.00 | 0.00 | 61 | 1015.0 |
| 20260504233001 | 16 | 325 | 14.5 | 27.4 | 0.00 | 0.00 | 0.00 | 62 | 1015.0 |
| 20260504231605 | 16 | 340 | 14.5 | 22.5 | 0.00 | 0.00 | 0.00 | 67 | 1015.0 |
| 20260504224501 | 12 | 316 | 6.4 | 14.5 | 0.00 | 0.00 | 0.00 | 83 | 1015.0 |
| 20260504223102 | 10 | 352 | 3.2 | 9.7 | 0.00 | 0.00 | 0.00 | 89 | 1015.0 |
| 20260504221501 | 8 | 9 | 0.0 | 3.2 | 0.00 | 0.00 | 0.00 | 90 | 1014.9 |
| 20260504214501 | 7 | 9 | 0.0 | 3.2 | 0.00 | 0.00 | 0.00 | 86 | 1014.5 |
| 20260504213102 | 7 | 9 | 1.6 | 6.4 | 0.00 | 0.00 | 0.00 | 84 | 1014.4 |
| 20260504211501 | 8 | 360 | 0.0 | 3.2 | 0.00 | 0.00 | 0.00 | 80 | 1014.1 |
| 20260504210111 | 8 | 193 | 0.0 | 3.2 | 0.00 | 0.00 | 0.00 | 80 | 1013.9 |
| 20260504204502 | 10 | 193 | 0.0 | 4.8 | 0.00 | 0.00 | 0.00 | 78 | 1013.5 |
| 20260504203104 | 10 | 193 | 1.6 | 4.8 | 0.00 | 0.00 | 0.00 | 76 | 1013.2 |
| 20260504201502 | 12 | 219 | 1.6 | 4.8 | 0.00 | 0.00 | 0.00 | 73 | 1012.9 |
| 20260504200002 | 12 | 351 | 8.0 | 22.5 | 0.00 | 0.00 | 0.00 | 74 | 1012.5 |
| 20260504194611 | 12 | 1 | 14.5 | 24.1 | 0.00 | 0.00 | 0.00 | 76 | 1012.2 |
| 20260504193002 | 11 | 344 | 17.7 | 24.1 | 0.00 | 0.00 | 0.00 | 78 | 1012.2 |
| 20260504191601 | 11 | 350 | 8.0 | 16.1 | 0.00 | 0.00 | 0.00 | 78 | 1012.0 |
| 20260504190003 | 11 | 350 | 11.3 | 17.7 | 0.00 | 0.05 | 0.00 | 79 | 1011.8 |
| 20260504184506 | 10 | 358 | 11.3 | 16.1 | 0.00 | 0.05 | 0.00 | 79 | 1011.7 |
| 20260504183102 | 10 | 256 | 0.0 | 8.0 | 0.00 | 0.05 | 0.00 | 78 | 1011.5 |
| 20260504181501 | 10 | 250 | 1.6 | 12.9 | 0.00 | 0.05 | 0.00 | 78 | 1011.4 |
| 20260504180210 | 10 | 296 | 8.0 | 14.5 | 0.00 | 0.08 | 0.00 | 79 | 1011.3 |
| 20260504174502 | 11 | 315 | 6.4 | 12.9 | 0.00 | 0.08 | 0.00 | 75 | 1011.2 |
| 20260504173003 | 11 | 320 | 6.4 | 12.9 | 0.00 | 0.08 | 0.00 | 74 | 1011.1 |
| 20260504171602 | 12 | 321 | 4.8 | 8.0 | 0.00 | 0.08 | 0.00 | 73 | 1011.1 |
| 20260504140128 | 13 | 339 | 4.8 | 11.3 | 0.00 | 0.61 | 0.00 | 74 | 1010.5 |